Regional Weather Roundup
Issued by NWS Newport/Morehead, NC

Current Version | Previous Version | Graphics & Text | Print | Product List | Glossary Off
Versions: 1 2 3 4 5 6 7 8 9 10 11 12 13 14 15 16 17 18 19 20 21 22 23 24 25 26 27 28 29 30 31 32 33 34 35 36 37 38 39 40 41 42 43 44 45 46 47 48 49 50

000
ASUS42 KMHX 260013
RWRMHX
WEATHER ROUNDUP FOR EASTERN NORTH CAROLINA
NATIONAL WEATHER SERVICE NEWPORT/MOREHEAD CITY NC
800 PM EDT WED MAY 25 2016

NOTE: "FAIR" INDICATES FEW OR NO CLOUDS BELOW 12,000 FEET
WITH NO SIGNIFICANT WEATHER AND/OR OBSTRUCTIONS TO VISIBILITY

NCZ015>017-031-032-045>047-102-103-260100-
NORTH COAST

CITY           SKY/WX    TMP DP  RH WIND       PRES   REMARKS
EDENTON        PTCLDY    80  62  53 S6        30.15S
ELIZABETH CITY CLEAR     78  60  53 S6        30.13F
KITTY HAWK     CLEAR     78  57  49 S6        30.15R
MANTEO         PTCLDY    75  64  67 S7        30.17S

$$

NCZ045>047-081-094-103-104-260100-
CENTRAL COAST

CITY           SKY/WX    TMP DP  RH WIND       PRES   REMARKS
FRISCO         CLEAR     71  67  87 SW7       30.18S

$$

NCZ095-097-098-100-101-260100-
SOUTHERN COAST

CITY           SKY/WX    TMP DP  RH WIND       PRES   REMARKS
BEAUFORT       CLEAR     73  65  75 S9        30.18S
CEDAR ISLAND   NOT AVBL
JACKSONVILLE   CLEAR     75  57  53 S7        30.17S
PINEY ISLAND   NOT AVBL
WILMINGTON     CLEAR     76  58  53 S8        30.18R


$$

NCZ011>013-027>030-043-044-078>080-089-090>093-098-260100-
COASTAL PLAIN

CITY           SKY/WX    TMP DP  RH WIND       PRES   REMARKS
AHOSKIE        NOT AVBL
CLINTON        CLEAR     78  65  63 CALM      30.15S
ELIZABETHTOWN  NOT AVBL
GOLDSBORO      CLEAR     81  58  44 S3        30.14R
GREENVILLE     CLEAR     79  61  53 CALM      30.16S
HAVELOCK       PTCLDY    74  58  57 S8        30.18S
KENANSVILLE    CLEAR     78  60  53 SE3       30.16S
KINSTON        CLEAR     81  59  47 S10       30.17R
NEW BERN       CLEAR     77  57  50 S7        30.18R
RICHLANDS      CLEAR     76  60  57 S6        30.17S
ROCKY MOUNT    CLEAR     77  63  61 CALM      30.14S
WASHINGTON     CLEAR     80  60  51 S7        30.15S
WHITEVILLE     CLEAR     78  62  57 S5        30.16S

$$

AMZ130-135-150-152-154-156-158-170-250-252-270-ANZ085-086-088-633-658-670-260100-
MARINE OBSERVATIONS

STATION/POSITION TIME  TEMP    WIND        PRES    WAVE   SWELL
                       AIR SEA DIR/SP/G            HT/PER HT/PER
                 (UTC) (F)     (DEG/KT/KT) (MB)    (FT/S) (FT/S)
CHESAPEAKE LIGHT 2300   72     130/ 11/ 11 1021.0
64 E VA BEACH    2350   66 61  210/  8/ 10 1020.7    2/ 8   2/ 8
DUCK             2300      61              1020.1
2 E DUCK         2311      65                N/A     2/ 8
OREGON INLET     2300      74              1021.2
13E OREGON INLT  2300      67                N/A     2/ 8   2/ 8
HATTERAS CG      2300      70              1021.5
DIAMOND BUOY     2350   74 72  220/ 10/ 12 1021.9    2/ 8   2/ 8
CAPE LOOKOUT     0000   73     200/  8/ 10 1021.9
BEAUFORT LAB     2300      71              1021.2
30 SE NEW RVR IN 2325      74                N/A     2/ 9
27 SE WRIGHTSVLE 2308   76 74  210/  8/ 12 1021.6
5 SE WRIGHTSVLE  2308   75 73  200/ 10/ 14 1022.5
225 S CAPE HAT   2350   75 79   50/  8/ 10 1023.2    2/ 9   2/ 9
41 SE CHARLESTON 2350   77 78  190/  6/  6 1021.9    2/ 8   2/ 8

$$




USA.gov is the U.S. government's official web portal to all federal, state and local government web resources and services.